www.pogodaiklimat.ru

Погода и климат >> Архив погоды >> Россия >> Ненецкий АО >> Амдерма


АРХИВ ПОГОДЫ в Амдерме

Время (UTC), дата Ветер
(напр.,м/с)
 
Видим.   Явления Облачность Т
(С)
Тd
(С)
f
(%)
Тe
(С)
Тes
(С)
Комфортность P
(гПа)
Po
(гПа)
Тmin
(С)
Tmax
(С)
R
(мм)
R24
(мм)
S
(см)
12 14.03 З 5 10 км {метель} 3/0
[Ac trans Ci fib]
-10.1 -11.6 89 -18 -18 1008.1 1001.5
15 14.03 З 10-14
{14}
10 км сильный позёмок {ливн. осадки} 9/8 600 м
[Sc Ac trans]
-7.3 -8.4 92 -18 -18 1008.5 1002.0 -7.3 0.0
18 14.03 З 9-13
{14}
10 км позёмок {ливн. осадки} ясно -9.5 -10.7 91 -20 -20 1009.8 1003.2
21 14.03 ЮЗ 10-13
{14}
10 км позёмок ясно -12.1 -13.0 93 -23 -23 1011.6 1004.9
00 15.03 ЮЗ 11-14
{14}
10 км позёмок ясно -13.1 -14.0 93 -25 -25 1012.1 1005.4
03 15.03 ЮЗ 5-10
{15}
4000 м мгла 3/0
[Ci fib]
-14.2 -15.2 92 -23 -23 1013.1 1006.4 -14.2 0.0 19
06 15.03 Ю 8-10
{12}
10 км позёмок 3/0
[Ci fib]
-14.1 -15.2 91 -25 -24 1014.1 1007.3 -14.3
09 15.03 Ю 11-13
{13}
4000 м метель 3/0
[Ci fib]
-12.9 -14.0 91 -25 -25 1014.4 1007.7
12 15.03 Ю 10-12
{13}
10 км сильный позёмок 3/0
[Ci fib]
-13.0 -14.3 90 -24 -24 1014.6 1007.9
15 15.03 Ю 9-11
{13}
10 км позёмок 3/0
[Ac trans]
-16.0 -17.4 89 -28 -28 1015.0 1008.2 -11.9
18 15.03 Ю 10-12
{13}
10 км сильный позёмок 3/0
[Ac trans]
-16.2 -17.5 90 -29 -29 1015.0 1008.2
21 15.03 Ю 8-10
{12}
10 км позёмок ясно -16.6 -17.8 90 -28 -28 1015.3 1008.5
00 16.03 Ю 10-11
{12}
10 км позёмок ясно -17.0 -18.4 89 -30 -30 1015.0 1008.2
03 16.03 Ю 10-12
{13}
10 км позёмок 9/0
[Ac trans Ci fib]
-16.1 -17.5 89 -28 -28 1014.9 1008.1 -17.1 19
06 16.03 Ю 9-13
{13}
4000 м сильный позёмок 3/0
[Cc]
-14.7 -16.3 88 -26 -26 1014.8 1008.0
09 16.03 Ю 13-16
{16}
4000 м метель 6/0
[Ac trans Ci fib]
-12.5 -13.7 91 -25 -25 1014.2 1007.5
12 16.03 Ю 16-18
{19}
4000 м метель 4/0
[Ac trans Ci fib]
-11.7 -13.4 87 -25 -25 1013.2 1006.5
15 16.03 Ю 11-14
{18}
10 км позёмок 8/4 600 м
[Sc Ac trans]
-12.5 -13.9 89 -24 -24 1013.7 1007.0 -11.5
18 16.03 Ю 19-24
{24}
500 м сильная метель 9/0
[Ac trans]
-10.1 -11.1 92 -24 -24 1011.3 1004.7
21 16.03 Ю 15-18
{24}
1000 м метель 10/0
[Ac und]
-7.5 -8.2 95 -20 -20 1012.1 1005.5
00 17.03 Ю 11-13
{18}
10 км сильный позёмок {ливн. осадки} 9/8 600 м
[Sc Ac trans]
-7.2 -8.0 94 -18 -18 1013.0 1006.4
03 17.03 Ю 13-16
{18}
4000 м метель 9/8 600 м
[Sc Ac trans]
-7.1 -7.8 95 -18 -18 1013.1 1006.5 -12.5 0.0 18
06 17.03 Ю 16-19
{20}
2000 м слаб. ливневой снег {метель} 9/9 600 м
[Cb cap]
-6.3 -6.8 96 -18 -18 1013.7 1007.2
09 17.03 Ю 12-15
{19}
2000 м метель {ливн. осадки} 8/5 600 м
[Sc Ac trans]
-6.2 -6.9 95 -17 -17 1015.2 1008.6
12 17.03 Ю 14-16
{18}
4000 м метель {ливн. осадки} 3/1 600 м
[Sc Ac lent]
-6.8 -7.7 93 -18 -18 1015.8 1009.2
15 17.03 Ю 12-14
{17}
10 км сильный позёмок 3/1 600 м
[Sc Ci sp]
-9.2 -9.8 95 -21 -21 1016.0 1009.4 -6.1 0.0
18 17.03 Ю 9-12
{16}
10 км позёмок 3/0
[Ci fib]
-9.4 -10.4 92 -20 -20 1016.1 1009.5
21 17.03 Ю 12-14
{18}
10 км сильный позёмок 6/3 600 м
[Sc Ac trans]
-7.6 -9.3 88 -19 -19 1015.3 1008.7
00 18.03 Ю 11-13
{15}
10 км сильный позёмок 9/4 600 м
[Sc Ac trans Ci fib]
-7.7 -8.8 92 -18 -18 1015.0 1008.4
03 18.03 Ю 10-12
{13}
10 км позёмок 9/4 600 м
[Sc Ac trans]
-8.0 -8.6 95 -18 -18 1015.0 1008.4 -9.8 18
06 18.03 Ю 10-12
{13}
10 км позёмок 9/0
[Ac trans Cc]
-6.8 -7.6 94 -17 -17 1014.6 1008.0
09 18.03 ЮЗ 7-10
{12}
10 км позёмок 9/0
[Ac trans]
-5.2 -6.2 93 -14 -13 1015.0 1008.5
12 18.03 ЮЗ 7-10
{12}
4000 м слаб. ливневой снег {метель} 9/8 600 м
[Cb cap Ac trans]
-4.5 -5.1 96 -13 -13 1015.4 1008.9
15 18.03 ЮЗ 9-11
{12}
4000 м слаб. ливневой снег {метель} 10/10 600 м
[Cb cap]
-3.9 -4.1 99 -13 -13 1015.9 1009.4 -3.9 0.0
18 18.03 ЮЗ 8-11
{12}
10 км слаб. ливневой снег {метель} 10/10 600 м
[Cb cap]
-3.5 -4.0 96 -12 -12 1015.6 1009.1
21 18.03 ЮЗ 8-11
{13}
10 км слаб. ливневой снег {метель} 10/10 600 м
[Cb cap]
-3.5 -3.9 97 -12 -12 1016.1 1009.6
00 19.03 ЮЗ 8-10
{12}
10 км позёмок {ливн. осадки} 10/10 600 м
[Sc]
-3.8 -4.4 96 -13 -13 1016.2 1009.7
03 19.03 Ю 7
{12}
10 км позёмок 9/8 600 м
[Sc Ac trans]
-5.3 -6.0 95 -14 -14 1016.1 1009.6 -5.3 0.2 18
06 19.03 Ю 10-12
{12}
4000 м слаб. снег {метель} 10/4 200 м
[Frnb As op]
-3.1 -3.5 97 -12 -12 1015.0 1008.5 -6.1
09 19.03 ЮЗ 7-10
{13}
10 км позёмок {снег} 10/5 600 м
[Sc As op]
-2.0 -2.7 95 -10 -10 1014.8 1008.3
12 19.03 Ю 8-10
{11}
10 км {снег, метель} 10/3 600 м
[Sc Ac As]
-2.5 -3.1 96 -11 -11 1013.2 1006.8
15 19.03 Ю 8-10
{12}
10 км {метель} 10/10 600 м
[Sc]
-1.6 -2.2 96 -10 -10 1011.4 1005.0 -1.6 0.0
18 19.03 Ю 11-14
{14}
4000 м слаб. ливневой снег {метель} 10/10 300 м
[Cb cap]
-1.6 -1.9 98 -11 -11 1008.3 1001.9
21 19.03 ЮЗ 9-12
{16}
4000 м позёмок {ливн. осадки} 10/10 300 м
[St]
-0.2 -0.2 100 -8 -8 1006.4 1000.0
00 20.03 ЮЗ 8-12
{12}
4000 м дымка {ливн. осадки} 9/9 300 м
[Sc]
-0.1 -0.2 99 -8 -8 1004.8 998.4
03 20.03 ЮЗ 10-12
{15}
4000 м дымка 10/10 300 м
[Sc]
-0.7 -0.7 100 -9 -9 1004.4 998.0 -1.8 0.0 18
06 20.03 ЮЗ 7-10
{13}
4000 м слаб. ливневой снег 9/9 300 м
[Cb cap]
-0.5 -0.5 100 -8 -8 1003.8 997.4
09 20.03 ЮЗ 6
{10}
4000 м слаб. ливневой снег 9/9 300 м
[Cb cap]
-0.4 -0.6 99 -7 -7 1003.1 996.8
12 20.03 ЮЗ 6
{10}
4000 м дымка {ливн. осадки} 10/10 300 м
[St]
-0.7 -0.7 100 -8 -8 1003.0 996.6
15 20.03 ЮЗ 6 4000 м дымка 10/10 200 м
[St]
-1.0 -1.0 100 -8 -8 1002.4 996.1 -0.3 0.0
18 20.03 ЮЗ 5 4000 м дымка {ливн. осадки} 10/10 300 м
[St]
-1.1 -1.1 100 -8 -8 1001.3 995.0
21 20.03 Ю 5 4000 м слаб. снег 10/10 300 м
[Sc]
-1.3 -1.3 100 -8 -8 1000.1 993.8
00 21.03 Ю 3 4000 м слаб. снег 10/0 300 м
[As op]
-1.8 -1.8 100 -7 -7 999.5 993.1
03 21.03 ЮЗ 3 4000 м слаб. снег 10/0 600 м
[As op]
-2.7 -2.7 100 -8 -8 999.6 993.2 -3.0 0.7 19
06 21.03 Ю 5 4000 м дымка {снег} 8/4 200 м
[St Ac trans]
-3.5 -3.5 100 -11 -10 1000.1 993.7 -3.6

 

Местоположение метеостанции Амдерма (Ненецкий АО, Россия): широта 69.77 долгота 61.68 высота над уровнем моря 48 м.

В архиве по умолчанию представлена погода в Амдерме за последнюю неделю. Архивные данные за месяц целиком и за предыдущие месяцы, начиная с января 2011 года, Вы можете получить, выбрав интересующий диапазон дат из раскрывающегося списка и нажав кнопку "Ввод!".


*Определитесь, кто Вы:
робот инопланетянин человек

Внимание! Время в таблицах - всемирное. Для получения местного времени необходимо прибавить поправку, которая равна 3 ч.

Смотрите также архив погоды в соседних городах и на ближайших метеорологических станциях:

Погода на Мысе Белый Нос (Ненецкий АО, Россия) (60 км)
Погода в Имени Федорова (Ненецкий АО, Россия) (124 км)
Погода в Усть-Каре (Ненецкий АО, Россия) (139 км)
Погода в Варандее (Ненецкий АО, Россия) (179 км)
Погода в Марресале (Ямало-Ненецкий АО, Россия) (197 км)
Погода в Воркуте (Коми, Россия) (271 км)
Погода на Мысе Константиновском (Ненецкий АО, Россия) (279 км)
Погода в Хорей-Вере (Ненецкий АО, Россия) (300 км)
Погода в Елецкой (Коми, Россия) (318 км)
Погода в Ходоварихе (Ненецкий АО, Россия) (325 км)

Пояснения к столбцам:

Ветер - указаны скорость ветра в м/с - средняя за 10 мин, порывы в срок и между сроками (в фигурных скобках) и направление, откуда дует ветер: С - северный, СВ - северо-восточный, В - восточный, ЮВ - юго-восточный, Ю - южный, ЮЗ - юго-западный, З - западный, СЗ - северо-западный.
Видимость - горизонтальная дальность видимости в метрах или километрах. При видимости от 1 до 10 км при отсутствии осадков обычно наблюдается дымка, при ухудшении видимости до 1 км и менее - туман. В сухую погоду видимость может ухудшаться дымом, пылью или мглою.
Явления - указаны атмосферные явления, наблюдавшиеся в срок или в последний час перед сроком; фигурными скобками обозначены явления, наблюдавшиеся между сроками (за 1-3 часа до срока); квадратными скобками обозначены град или гололедные отложения с указанием их диаметра в мм.
Облачность - указаны через наклонную черту общая и нижняя облачность в баллах и высота нижней границы облаков в метрах; квадратными скобками обозначены формы облаков: Ci - перистые, Cs - перисто-слоистые, Cc - перисто-кучевые, Ac - высококучевые, As - высокослоистые, Sc - слоисто-кучевые, Ns - слоисто-дождевые, Cu - кучевые, Cb - кучево-дождевые. Подробнее классификацию облаков см. в Атласе облаков (PDF).
T - Температура воздуха - температура, измеренная на высоте 2 м над землей.
Td - Температура точки росы - температура, при понижении до которой содержащийся в воздухе водяной пар достигнет насыщения.
f - Относительная влажность воздуха - влажноcть воздуха, измеренная на высоте 2 м над землей.
Te - Эффективная температура - температура, которую ощущает одетый по сезону человек в тени. Характеристика душности погоды. При расчете учитывается влияние влажности воздуха и скорости ветра на теплоощущения человека.
Tes - Эффективная температура на солнце - температура, которую ощущает человек, с поправкой на солнечный нагрев. Характеристика знойности погоды. Зависит от высоты солнца над горизонтом, облачности и скорости ветра. Ночью, в пасмурную погоду, а также при ветре 12 м/с и более поправка равна нулю.
P - Атмосферное давление - приведенное к уровню моря атмосферное давление.
Po - Атмосферное давление - измеренное на уровне метеостанции атмосферное давление.
Tmin - Минимальная температура - минимум температуры воздуха на высоте 2 м над землей.
Tmax - Максимальная температура - максимум температуры воздуха на высоте 2 м над землей.
R - Количество осадков - Количество выпавших осадков за период времени, мм. При наведении курсора мыши на число - период времени, за который выпало указанное количество осадков.
R24 - Количество осадков - Количество выпавших осадков за 24 часа, мм.
S - Снежный покров - Высота снежного покрова, см. При наведении курсора мыши на число - состояние снежного покрова и степень покрытия местности в баллах.